This is the latest recevied weather packets stored in our database for station/object N0KWA. If no packets are shown the sender has not sent any weather packets the latest 10 day(s).
| Time | Temp. | Humidity | Pressure | Rain* | Wind** | Luminosity | Snow |
|---|---|---|---|---|---|---|---|
| 1777999000 | 25.56° C | 75% | 1015.4 hPa | 0 mm | - | 46 W/m² | - |
| 1777998698 | 25.56° C | 76% | 1015.3 hPa | 0 mm | - | 42 W/m² | - |
| 1777998395 | 25° C | 76% | 1015.3 hPa | 0 mm | - | 43 W/m² | - |
| 1777998092 | 25° C | 76% | 1015.5 hPa | 0 mm | - | 40 W/m² | - |
| 1777997789 | 25° C | 78% | 1015.5 hPa | 0 mm | - | 29 W/m² | - |
| 1777997486 | 24.44° C | 78% | 1015.5 hPa | 0 mm | - | 47 W/m² | - |
| 1777997184 | 24.44° C | 79% | 1015.4 hPa | 0 mm | - | 43 W/m² | - |
| 1777996881 | 24.44° C | 77% | 1015.3 hPa | 0 mm | - | 44 W/m² | - |
| 1777996577 | 24.44° C | 77% | 1015.6 hPa | 0 mm | - | 46 W/m² | - |
| 1777996274 | 24.44° C | 77% | 1015.6 hPa | 0 mm | - | 54 W/m² | - |
| 1777995970 | 24.44° C | 77% | 1015.6 hPa | 0 mm | - | 55 W/m² | - |
| 1777995666 | 24.44° C | 77% | 1015.6 hPa | 0 mm | - | 40 W/m² | - |
| 1777995364 | 24.44° C | 77% | 1015.6 hPa | 0 mm | - | 49 W/m² | - |
| 1777995061 | 24.44° C | 77% | 1015.6 hPa | 0 mm | - | 33 W/m² | - |
| 1777994757 | 24.44° C | 77% | 1015.6 hPa | 0 mm | - | 39 W/m² | - |
| 1777994453 | 23.89° C | 79% | 1015.5 hPa | 0 mm | - | 41 W/m² | - |
| 1777994148 | 23.89° C | 80% | 1015.6 hPa | 0 mm | - | 44 W/m² | - |
| 1777993847 | 23.33° C | 80% | 1015.7 hPa | 0 mm | - | 49 W/m² | - |
| 1777993542 | 23.33° C | 81% | 1015.6 hPa | 0 mm | - | 52 W/m² | - |
| 1777993239 | 22.78° C | 83% | 1015.7 hPa | 0 mm | - | 52 W/m² | - |
| 1777992935 | 22.78° C | 84% | 1015.7 hPa | 0 mm | - | 32 W/m² | - |
| 1777992633 | 22.78° C | 85% | 1015.7 hPa | 0 mm | - | 39 W/m² | - |
| 1777992331 | 22.22° C | 85% | 1015.8 hPa | 0 mm | - | 34 W/m² | - |
| 1777992028 | 22.22° C | 86% | 1015.9 hPa | 0 mm | - | 35 W/m² | - |
| 1777991726 | 21.67° C | 89% | 1015.9 hPa | 0 mm | - | 33 W/m² | - |
* Rain latest hour (hover to see other rain measurements)
** Current wind speed in m/s (hover to see current wind gust speed)